Погода в Гоцатле Большом

Россия / Республика Дагестан     42°31′06″N   46°53′00″E
темп.,
°C
ветер,
м/с
пор.,
м/с
влажн.,
%
обл.,
%
осадки,
мм/ч
давл.,
гПа
погр.,
м
13 мая, чт
чт1300:00+10ююз225030 0.0 101512
03:00+10юз224810 0.0 101513
06:00+12юз225598 0.0 101528
09:00+19юз11384 0.0 1014299
12:00+25вюв152137 0.0 10123388
15:00+25св332945 0.0 10112863
18:00+21ссв22475 0.0 101317
21:00+15ююз22586 0.0 101611
14 мая, пт
пт1400:00+13ююз2254100 0.0 101614
03:00+12ююз225140 0.0 101714
06:00+14ююз22545 0.0 101755
09:00+21юв22350 0.0 1015450
12:00+25всв23261 0.0 10132234
15:00+24в44341 0.0 10121353
18:00+17ююв456620 0.3 1015158
21:00+14юз227283 0.4 101721
15 мая, сб
сб1500:00+13ююз227194 0.1 101614
03:00+12ююз22672 0.1 101616
06:00+13ююз22650 0.0 101672
09:00+20юв11400 0.0 1014536
12:00+23св22300 0.0 10131713
15:00+24св43353 0.0 10122302
18:00+19в22533 0.1 101498
21:00+14ююв1163100 0.1 101616
16 мая, вс
вс1600:00+13ююз116934 0.0 101513
03:00+12юз227065 0.0 101512
06:00+14ююз22625 0.0 101484
09:00+20юв12390 0.0 1012701
12:00+24всв23310 0.0 10091836
15:00+23в43390 0.0 1008989
18:00+20в33560 0.0 1008116
21:00+15юз33500 0.0 101032
17 мая, пн
пн1700:00+12юз32445 0.0 101121
03:00+11юз22455 0.0 101015
06:00+13юз22536 0.0 101073
09:00+21зюз113579 0.0 1007499
12:00+25св232795 0.0 10061559
15:00+27св24240 0.0 10052635
18:00+22всв225337 0.0 100640
21:00+17юз3246100 0.0 100917